NOAA 10 [-]

Last updated on Fri Dec 29 2023 00:02:19 GMT+0000 (Coordinated Universal Time)

1 16969U 86073A 23361.90802111 .00000276 00000+0 12742-3 0 9995 2 16969 98.6245 344.6305 0013106 114.1945 314.2268 14.28492245940817
UTC large
Height (km)
Speed (km/s)
/
Latitude / Longitude
Inclination (degrees)
Orbital Period (minutes)
Azimuth
Elevation
Range (km)
Doppler Factor

Next 0 passes for location: London (51.5072 / 0.1276)

Sorry there are no passes over London.